User: anonymous   Login
Location: Drayton Valley
(53.2170°N, 114.9830°W)
Time: 23:12:34
(UTC-07:00)
Language:

MOZ.5/SAFIR/RUBIN 5/SL-8 - Orbit

View from above orbital plane
View from above orbital plane
View from above satellite
View from above satellite

Ground track
Ground track

The orbit data is extracted from the following two-line orbital elements,

1 28898U 05043G   17052.03648092  .00000027  00000-0  14760-4 0  9995
2 28898  97.9073 206.9562 0019665 189.2820 170.8021 14.60164201602887
Epoch (UTC): 21 February 2017 00:52:31
Eccentricity: 0.0019665
inclination: 97.9073°
perigee height: 679 km
apogee height: 706 km
right ascension of ascending node: 206.9562°
argument of perigee: 189.2820°
revolutions per day: 14.60164201
mean anomaly at epoch: 170.8021°
orbit number at epoch: 60288

The dashed part of the orbit path shows where the satellite is in the earth's shadow,  

DLR